User: anonymous   Login
Location: Unspecified
(0.0000°N, 0.0000°E)
Time: 12:47:26
(UTC+00:00)
Language:

Tiangong 1 - Orbit

View from above orbital plane
View from above orbital plane
View from above satellite
View from above satellite

Ground track
Ground track

The orbit data is extracted from the following two-line orbital elements,

1 37820U 11053A   17230.15951389  .00025417  00000-0  12298-3 0  9998
2 37820  42.7575 179.6885 0018453 162.9282  27.9438 15.81737053337777
Epoch (UTC): 18 August 2017 03:49:42
Eccentricity: 0.0018453
inclination: 42.7575°
perigee height: 313 km
apogee height: 338 km
right ascension of ascending node: 179.6885°
argument of perigee: 162.9282°
revolutions per day: 15.81737053
mean anomaly at epoch: 27.9438°
orbit number at epoch: 33777

The dashed part of the orbit path shows where the satellite is in the earth's shadow,  

DLR